Location: Burbank
(38.7788°N, 114.0429°W)
Time: 20:46:26
(UTC+00:00)

Vanguard 2 - Pass Details

Date: 10 May 2026
Orbit: 553 x 2894 km, 32.9° (Epoch: 6 June)

Event Time Altitude Azimuth Distance (km) Brightness Sun altitude
Rises 09:15:44 0° 217° (SW) 6,556 - -28.6°
Reaches altitude 10° 09:20:27 10° 210° (SSW) 5,656 - -28.2°
Exits shadow 09:29:55 32° 184° (S) 4,140 10.7 -27.2°
Maximum altitude 09:35:49 39° 150° (SSE) 3,680 10.7 -26.6°
Drops below altitude 10° 09:48:51 10° 89° (E) 4,853 12.0 -25.2°
Sets 09:52:29 0° 82° (E) 5,576 12.6 -24.7°
